TRA1049 EHGG-EPWR

Flight info

Callsign TRA1049
Flight time 1h 11m
Altitude 37000
Route DOBAK DCT WSN Z612 GESTO DCT GARLU DCT UNRIG DCT LASIS Z419 VAGNI
Aircraft A320/M-SDE3FGHIRWY/LB1

Departure

Time 2026-04-24 12:55
Airport Groningen Airport Eelde (EHGG)

Arrival

Time 2026-04-24 14:06
Airport Copernicus Wrocław Airport (EPWR)
Time Latitude Longitude Altitude Speed Heading
2026-04-24 12:52 53.12814 6.58585 20 ft 0 kts 359°
2026-04-24 12:53 53.12823 6.58588 20 ft 3 kts 17°
2026-04-24 12:53 53.12823 6.58627 20 ft 6 kts 145°
2026-04-24 12:53 53.12758 6.58655 20 ft 12 kts 165°
2026-04-24 12:53 53.12680 6.58757 20 ft 16 kts 129°
2026-04-24 12:54 53.12597 6.58926 20 ft 20 kts 140°
2026-04-24 12:54 53.12483 6.58979 20 ft 15 kts 210°
2026-04-24 12:54 53.12407 6.58839 20 ft 24 kts 232°
2026-04-24 12:54 53.12117 6.58225 22 ft 108 kts 233°
2026-04-24 12:55 53.11495 6.56924 102 ft 167 kts 234°
2026-04-24 12:55 53.10772 6.55460 881 ft 168 kts 236°
2026-04-24 12:55 53.10053 6.53971 1759 ft 168 kts 237°
2026-04-24 12:55 53.09096 6.52735 2412 ft 190 kts 203°
2026-04-24 12:56 53.07721 6.52672 2954 ft 214 kts 161°
2026-04-24 12:56 53.06458 6.53985 3618 ft 225 kts 131°
2026-04-24 12:56 53.05393 6.55957 4328 ft 239 kts 126°
2026-04-24 12:56 53.04281 6.58147 5081 ft 256 kts 127°
2026-04-24 12:57 53.03063 6.60411 5790 ft 274 kts 129°
2026-04-24 12:57 53.01817 6.62865 6515 ft 285 kts 117°
2026-04-24 12:57 53.01284 6.65913 7452 ft 278 kts 86°
2026-04-24 12:57 53.01672 6.68969 8435 ft 271 kts 60°
2026-04-24 12:58 53.02806 6.71368 9314 ft 270 kts 37°
2026-04-24 12:58 53.04308 6.73210 10178 ft 275 kts 34°
2026-04-24 12:58 53.05855 6.75094 10930 ft 284 kts 34°
2026-04-24 12:58 53.07491 6.77113 11432 ft 302 kts 35°
2026-04-24 12:59 53.09232 6.79285 11946 ft 319 kts 35°
2026-04-24 12:59 53.11006 6.81515 12688 ft 326 kts 36°
2026-04-24 12:59 53.12815 6.83797 13499 ft 331 kts 35°
2026-04-24 12:59 53.14647 6.86111 14279 ft 336 kts 35°
2026-04-24 13:00 53.16499 6.88465 15047 ft 341 kts 37°
2026-04-24 13:00 53.18092 6.91393 15739 ft 351 kts 56°
2026-04-24 13:00 53.19041 6.95188 16449 ft 360 kts 75°
2026-04-24 13:00 53.19447 6.99289 17156 ft 365 kts 80°
2026-04-24 13:01 53.19787 7.03477 17847 ft 369 kts 81°
2026-04-24 13:01 53.20134 7.07751 18540 ft 374 kts 80°
2026-04-24 13:01 53.20495 7.12046 19185 ft 380 kts 80°
2026-04-24 13:01 53.20869 7.16379 19806 ft 385 kts 80°
2026-04-24 13:02 53.21256 7.20831 20426 ft 390 kts 80°
2026-04-24 13:02 53.21645 7.25284 21019 ft 395 kts 80°
2026-04-24 13:02 53.22044 7.29832 21618 ft 400 kts 80°
2026-04-24 13:02 53.22445 7.34429 22193 ft 405 kts 80°
2026-04-24 13:03 53.22852 7.39118 22764 ft 410 kts 81°
2026-04-24 13:03 53.23255 7.43783 23311 ft 414 kts 81°
2026-04-24 13:03 53.23666 7.48578 23842 ft 419 kts 81°
2026-04-24 13:03 53.24077 7.53399 24385 ft 423 kts 81°
2026-04-24 13:04 53.24485 7.58210 24920 ft 426 kts 81°
2026-04-24 13:04 53.24900 7.63135 25455 ft 429 kts 81°
2026-04-24 13:04 53.25317 7.68096 25966 ft 433 kts 82°
2026-04-24 13:04 53.25733 7.73065 26457 ft 436 kts 82°
2026-04-24 13:05 53.26147 7.78050 26919 ft 439 kts 82°
2026-04-24 13:05 53.26569 7.83138 27380 ft 443 kts 82°
2026-04-24 13:05 53.26986 7.88193 27832 ft 445 kts 82°
2026-04-24 13:05 53.27409 7.93351 28281 ft 448 kts 82°
2026-04-24 13:06 53.27843 7.98679 28696 ft 452 kts 82°
2026-04-24 13:06 53.28271 8.03977 29118 ft 454 kts 82°
2026-04-24 13:06 53.28688 8.09158 29506 ft 457 kts 82°
2026-04-24 13:06 53.29110 8.14428 29882 ft 460 kts 82°
2026-04-24 13:07 53.29535 8.19782 30241 ft 464 kts 82°
2026-04-24 13:07 53.29956 8.25097 30578 ft 467 kts 82°
2026-04-24 13:07 53.30385 8.30528 30916 ft 470 kts 82°
2026-04-24 13:07 53.30807 8.35923 31243 ft 472 kts 82°
2026-04-24 13:08 53.31234 8.41406 31558 ft 475 kts 82°
2026-04-24 13:08 53.31655 8.46861 31878 ft 477 kts 82°
2026-04-24 13:08 53.32076 8.52325 32288 ft 477 kts 82°
2026-04-24 13:09 53.32907 8.63265 33091 ft 476 kts 82°
2026-04-24 13:09 53.33329 8.68858 33463 ft 476 kts 83°
2026-04-24 13:09 53.33718 8.74320 33787 ft 476 kts 84°
2026-04-24 13:09 53.33944 8.79798 34120 ft 476 kts 88°
2026-04-24 13:10 53.33965 8.85353 34443 ft 476 kts 92°
2026-04-24 13:10 53.33777 8.90826 34761 ft 476 kts 96°
2026-04-24 13:10 53.33376 8.96310 35087 ft 476 kts 99°
2026-04-24 13:10 53.32761 9.01813 35412 ft 475 kts 104°
2026-04-24 13:11 53.32022 9.07182 35714 ft 475 kts 104°
2026-04-24 13:11 53.31259 9.12589 35950 ft 476 kts 104°
2026-04-24 13:11 53.30509 9.17902 36169 ft 477 kts 104°
2026-04-24 13:11 53.29748 9.23357 36409 ft 478 kts 104°
2026-04-24 13:12 53.28997 9.28753 36640 ft 479 kts 104°
2026-04-24 13:12 53.28244 9.34147 36847 ft 480 kts 104°
2026-04-24 13:12 53.27479 9.39549 37067 ft 481 kts 104°
2026-04-24 13:12 53.26699 9.45016 37144 ft 482 kts 104°
2026-04-24 13:13 53.25142 9.55895 37152 ft 483 kts 104°
2026-04-24 13:13 53.23580 9.66748 37145 ft 483 kts 104°
2026-04-24 13:14 53.21995 9.77685 37146 ft 483 kts 104°
2026-04-24 13:14 53.20407 9.88556 37141 ft 484 kts 104°
2026-04-24 13:15 53.18788 9.99411 37144 ft 484 kts 106°
2026-04-24 13:15 53.16625 10.09989 37137 ft 483 kts 114°
2026-04-24 13:16 53.13676 10.20069 37135 ft 482 kts 120°
2026-04-24 13:16 53.10454 10.29768 37136 ft 481 kts 121°
2026-04-24 13:17 53.07228 10.39459 37131 ft 482 kts 120°
2026-04-24 13:17 53.03998 10.49176 37127 ft 482 kts 120°
2026-04-24 13:18 53.00755 10.58914 37124 ft 482 kts 120°
2026-04-24 13:18 52.97513 10.68616 37118 ft 482 kts 121°
2026-04-24 13:19 52.94265 10.78294 37114 ft 482 kts 121°
2026-04-24 13:19 52.91000 10.87982 37110 ft 482 kts 121°
2026-04-24 13:20 52.87718 10.97689 37105 ft 484 kts 121°
2026-04-24 13:20 52.84426 11.07379 37107 ft 483 kts 121°
2026-04-24 13:21 52.81036 11.16910 37102 ft 484 kts 122°
2026-04-24 13:21 52.77511 11.26387 37101 ft 484 kts 122°
2026-04-24 13:22 52.73995 11.35801 37104 ft 484 kts 122°
2026-04-24 13:22 52.70487 11.45172 37102 ft 484 kts 122°
2026-04-24 13:23 52.66963 11.54556 37100 ft 484 kts 122°
2026-04-24 13:23 52.63412 11.63978 37100 ft 484 kts 122°
2026-04-24 13:24 52.59849 11.73398 37099 ft 485 kts 123°
2026-04-24 13:24 52.56277 11.82802 37102 ft 485 kts 123°
2026-04-24 13:25 52.52720 11.92135 37101 ft 484 kts 123°
2026-04-24 13:25 52.49153 12.01456 37100 ft 485 kts 123°
2026-04-24 13:26 52.45569 12.10794 37098 ft 485 kts 123°
2026-04-24 13:26 52.41976 12.20115 37101 ft 485 kts 122°
2026-04-24 13:27 52.38379 12.29416 37095 ft 486 kts 122°
2026-04-24 13:27 52.34772 12.38709 37092 ft 486 kts 122°
2026-04-24 13:28 52.31154 12.47996 37086 ft 486 kts 122°
2026-04-24 13:28 52.27539 12.57238 37082 ft 486 kts 122°
2026-04-24 13:29 52.23903 12.66505 37083 ft 485 kts 123°
2026-04-24 13:29 52.20243 12.75795 37084 ft 486 kts 123°
2026-04-24 13:30 52.16600 12.85009 37080 ft 486 kts 123°
2026-04-24 13:30 52.12962 12.94185 37078 ft 487 kts 123°
2026-04-24 13:31 52.09272 13.03453 37079 ft 487 kts 122°
2026-04-24 13:31 52.05610 13.12620 37079 ft 487 kts 123°
2026-04-24 13:32 52.01930 13.21794 37082 ft 486 kts 122°
2026-04-24 13:32 51.98236 13.30970 37086 ft 487 kts 122°
2026-04-24 13:33 51.94516 13.40188 37086 ft 487 kts 122°
2026-04-24 13:33 51.90824 13.49299 37087 ft 487 kts 122°
2026-04-24 13:34 51.87118 13.58507 37087 ft 486 kts 120°
2026-04-24 13:34 51.83845 13.68060 37085 ft 486 kts 117°
2026-04-24 13:35 51.80705 13.77642 37084 ft 486 kts 116°
2026-04-24 13:35 51.77535 13.87262 37087 ft 486 kts 116°
2026-04-24 13:36 51.74350 13.96874 37091 ft 485 kts 116°
2026-04-24 13:36 51.71154 14.06475 37091 ft 485 kts 116°
2026-04-24 13:37 51.67978 14.15981 37091 ft 485 kts 116°
2026-04-24 13:37 51.64775 14.25529 37095 ft 484 kts 116°
2026-04-24 13:38 51.61592 14.34981 37094 ft 483 kts 116°
2026-04-24 13:38 51.58376 14.44493 37091 ft 484 kts 116°
2026-04-24 13:39 51.55173 14.53932 37095 ft 484 kts 116°
2026-04-24 13:39 51.51929 14.63462 37093 ft 484 kts 116°
2026-04-24 13:40 51.48711 14.72879 37096 ft 484 kts 117°
2026-04-24 13:40 51.47079 14.77640 36732 ft 485 kts 117°
2026-04-24 13:40 51.45478 14.82297 36181 ft 482 kts 116°
2026-04-24 13:41 51.43866 14.86982 35518 ft 480 kts 116°
2026-04-24 13:41 51.42330 14.91788 34810 ft 478 kts 112°
2026-04-24 13:41 51.41012 14.96600 34143 ft 476 kts 109°
2026-04-24 13:41 51.39878 15.01570 33449 ft 475 kts 105°
2026-04-24 13:42 51.38952 15.06613 32777 ft 473 kts 101°
2026-04-24 13:42 51.38138 15.11680 32104 ft 473 kts 101°
2026-04-24 13:42 51.37327 15.16816 31385 ft 474 kts 101°
2026-04-24 13:42 51.36528 15.21856 30848 ft 470 kts 101°
2026-04-24 13:43 51.35716 15.26918 30383 ft 466 kts 101°
2026-04-24 13:43 51.34919 15.31849 29912 ft 462 kts 101°
2026-04-24 13:43 51.34121 15.36761 29425 ft 458 kts 101°
2026-04-24 13:43 51.33321 15.41669 28944 ft 454 kts 101°
2026-04-24 13:44 51.32529 15.46499 28484 ft 449 kts 101°
2026-04-24 13:44 51.31744 15.51275 28024 ft 445 kts 101°
2026-04-24 13:44 51.30953 15.56072 27543 ft 442 kts 101°
2026-04-24 13:44 51.30179 15.60757 27077 ft 438 kts 101°
2026-04-24 13:45 51.29410 15.65397 26612 ft 435 kts 102°
2026-04-24 13:45 51.28642 15.70024 26142 ft 431 kts 102°
2026-04-24 13:45 51.27871 15.74656 25676 ft 428 kts 102°
2026-04-24 13:45 51.27113 15.79197 25207 ft 425 kts 102°
2026-04-24 13:46 51.26357 15.83711 24749 ft 421 kts 102°
2026-04-24 13:46 51.25604 15.88186 24286 ft 419 kts 102°
2026-04-24 13:46 51.24856 15.92630 23832 ft 416 kts 102°
2026-04-24 13:46 51.24078 15.97025 23374 ft 414 kts 105°
2026-04-24 13:47 51.23120 16.01384 22906 ft 413 kts 109°
2026-04-24 13:47 51.22055 16.05560 22446 ft 411 kts 110°
2026-04-24 13:47 51.20953 16.09790 21962 ft 409 kts 110°
2026-04-24 13:47 51.19872 16.13924 21490 ft 407 kts 110°
2026-04-24 13:48 51.18800 16.18032 21029 ft 404 kts 110°
2026-04-24 13:48 51.17729 16.22139 20567 ft 402 kts 110°
2026-04-24 13:48 51.16666 16.26215 20095 ft 400 kts 110°
2026-04-24 13:48 51.15594 16.30320 19640 ft 397 kts 110°
2026-04-24 13:49 51.14542 16.34335 19225 ft 393 kts 110°
2026-04-24 13:49 51.13501 16.38307 18787 ft 391 kts 110°
2026-04-24 13:49 51.12463 16.42266 18328 ft 388 kts 110°
2026-04-24 13:49 51.11429 16.46191 17882 ft 386 kts 109°
2026-04-24 13:50 51.10401 16.50092 17436 ft 383 kts 109°
2026-04-24 13:50 51.09378 16.53966 16972 ft 381 kts 109°
2026-04-24 13:50 51.08428 16.57897 16502 ft 378 kts 106°
2026-04-24 13:50 51.07572 16.61793 16055 ft 376 kts 105°
2026-04-24 13:51 51.06723 16.65717 15593 ft 374 kts 106°
2026-04-24 13:51 51.05825 16.69595 15131 ft 373 kts 110°
2026-04-24 13:51 51.04767 16.73322 14676 ft 372 kts 113°
2026-04-24 13:51 51.03656 16.76977 14222 ft 370 kts 113°
2026-04-24 13:52 51.02533 16.80627 13778 ft 367 kts 114°
2026-04-24 13:52 51.01421 16.84241 13409 ft 364 kts 114°
2026-04-24 13:52 51.00315 16.87839 12864 ft 366 kts 113°
2026-04-24 13:52 50.99202 16.91464 12358 ft 366 kts 114°
2026-04-24 13:53 50.98087 16.95088 11864 ft 366 kts 114°
2026-04-24 13:53 50.96979 16.98691 11383 ft 364 kts 114°
2026-04-24 13:53 50.95860 17.02321 10914 ft 362 kts 114°
2026-04-24 13:53 50.94769 17.05853 10500 ft 358 kts 114°
2026-04-24 13:54 50.93706 17.09285 10302 ft 337 kts 114°
2026-04-24 13:54 50.92694 17.12539 10170 ft 319 kts 114°
2026-04-24 13:54 50.91746 17.15591 10012 ft 308 kts 114°
2026-04-24 13:54 50.90798 17.18646 9658 ft 307 kts 114°
2026-04-24 13:55 50.89867 17.21647 9318 ft 304 kts 114°
2026-04-24 13:55 50.88945 17.24610 9068 ft 296 kts 114°
2026-04-24 13:55 50.88052 17.27475 8788 ft 280 kts 114°
2026-04-24 13:55 50.87203 17.30189 8684 ft 274 kts 114°
2026-04-24 13:56 50.86373 17.32858 8521 ft 267 kts 111°
2026-04-24 13:56 50.85963 17.35664 8358 ft 256 kts 79°
2026-04-24 13:56 50.86613 17.38156 8243 ft 244 kts 41°
2026-04-24 13:56 50.88001 17.39540 8200 ft 235 kts 18°
2026-04-24 13:57 50.89498 17.40451 8045 ft 231 kts 17°
2026-04-24 13:57 50.90998 17.41411 7655 ft 234 kts 18°
2026-04-24 13:57 50.92561 17.41900 7246 ft 229 kts 348°
2026-04-24 13:57 50.93954 17.40876 6875 ft 226 kts 316°
2026-04-24 13:58 50.94813 17.38830 6578 ft 223 kts 295°
2026-04-24 13:58 50.95473 17.36629 6322 ft 219 kts 298°
2026-04-24 13:58 50.96189 17.34521 6066 ft 215 kts 300°
2026-04-24 13:58 50.96888 17.32448 5820 ft 212 kts 298°
2026-04-24 13:59 50.97549 17.30408 5604 ft 206 kts 298°
2026-04-24 13:59 50.98179 17.28404 5313 ft 200 kts 297°
2026-04-24 13:59 50.98772 17.26473 5061 ft 191 kts 297°
2026-04-24 13:59 50.99314 17.24674 5063 ft 168 kts 297°
2026-04-24 14:00 50.99804 17.23041 4926 ft 161 kts 297°
2026-04-24 14:00 51.00278 17.21463 4714 ft 157 kts 297°
2026-04-24 14:00 51.00744 17.19907 4497 ft 154 kts 297°
2026-04-24 14:00 51.01204 17.18372 4294 ft 153 kts 297°
2026-04-24 14:01 51.01657 17.16863 4090 ft 153 kts 297°
2026-04-24 14:01 51.02110 17.15357 3891 ft 152 kts 298°
2026-04-24 14:01 51.02567 17.13844 3687 ft 152 kts 297°
2026-04-24 14:01 51.03027 17.12322 3485 ft 152 kts 297°
2026-04-24 14:02 51.03482 17.10818 3282 ft 151 kts 297°
2026-04-24 14:02 51.03938 17.09314 3083 ft 150 kts 298°
2026-04-24 14:02 51.04389 17.07831 2884 ft 149 kts 298°
2026-04-24 14:02 51.04831 17.06380 2681 ft 143 kts 297°
2026-04-24 14:03 51.05254 17.04987 2487 ft 136 kts 297°
2026-04-24 14:03 51.05664 17.03643 2309 ft 135 kts 297°
2026-04-24 14:03 51.06074 17.02303 2130 ft 134 kts 297°
2026-04-24 14:03 51.06478 17.00979 1953 ft 134 kts 297°
2026-04-24 14:04 51.06884 16.99650 1778 ft 133 kts 296°
2026-04-24 14:04 51.07288 16.98326 1596 ft 131 kts 296°
2026-04-24 14:04 51.07678 16.97057 1385 ft 128 kts 297°
2026-04-24 14:04 51.08083 16.95790 1274 ft 127 kts 298°
2026-04-24 14:05 51.08467 16.94556 1160 ft 124 kts 295°
2026-04-24 14:05 51.08821 16.93313 973 ft 122 kts 295°
2026-04-24 14:05 51.09186 16.92087 762 ft 125 kts 296°
2026-04-24 14:05 51.09574 16.90842 619 ft 125 kts 296°
2026-04-24 14:06 51.09960 16.89602 426 ft 121 kts 295°
2026-04-24 14:06 51.10289 16.88508 407 ft 95 kts 296°
2026-04-24 14:06 51.10468 16.87927 410 ft 34 kts 295°
2026-04-24 14:06 51.10565 16.87607 411 ft 30 kts 297°
2026-04-24 14:07 51.10650 16.87333 412 ft 18 kts 297°
2026-04-24 14:07 51.10758 16.87282 412 ft 17 kts 18°
2026-04-24 14:07 51.10849 16.87338 411 ft 11 kts 26°
2026-04-24 14:07 51.10919 16.87399 411 ft 11 kts 33°
2026-04-24 14:08 51.10935 16.87521 410 ft 13 kts 102°
2026-04-24 14:08 51.10899 16.87658 410 ft 13 kts 116°
2026-04-24 14:08 51.10894 16.87722 410 ft 4 kts 73°
2026-04-24 14:08 51.10929 16.87774 408 ft 0 kts 32°